Weather History for KCOM - March, 2013

Change the Weather History Date:

Thursday, March 7, 2013

  Actual Average (KABI) Record (KABI)
Temperature  
Mean Temperature 56 °F 54 °F  
Max Temperature 72 °F 66 °F 88 °F (1918)
Min Temperature 39 °F 42 °F 17 °F (1943)
Degree Days  
Heating Degree Days 10 12  
Month to date heating degree days 88  
Since 1 July heating degree days 2221  
Cooling Degree Days 0 1  
Month to date cooling degree days 2  
Year to date cooling degree days 7  
Growing Degree Days 6 (Base 50)    
Moisture  
Dew Point 29 °F    
Average Humidity 39    
Maximum Humidity 71    
Minimum Humidity 27    
Precipitation  
Precipitation 0.10 in 0.06 in 0.83 in (1936)
Month to date precipitation 0.40  
Year to date precipitation 2.78  
Sea Level Pressure  
Sea Level Pressure 30.11 in    
Wind  
Wind Speed 9 mph (South)    
Max Wind Speed 21 mph    
Max Gust Speed 28 mph    
Visibility 10 miles    
Events      
T = Trace of Precipitation, MM = Missing Value Source: NWS Daily Summary

Daily Weather History Graph

Daily Weather History Graph

Search for Another Location

Airport or City:

Trip Planner

Search our weather history database for the weather conditions in past years. The results will help you decide how hot, cold, wet, or windy it might be!

Date:

Astronomy

Mar. 07, 2013 Rise Set
Actual Time 6:57 AM CST 6:40 PM CST
Civil Twilight 6:32 AM CST 7:04 PM CST
Nautical Twilight 6:04 AM CST 7:32 PM CST
Astronomical Twilight 5:36 AM CST 8:01 PM CST
Moon 3:45 AM CST (3/7) 2:41 PM CST (3/7)
Length of Visible Light 12h 31m
Length of Day
11h 42m
Waning Crescent, 20% of the Moon is Illuminated
Mar 7
Waning Crescent
Mar 11
New
Mar 19
First Quarter
Mar 27
Full
Apr 2
Last Quarter

Hourly Weather History & Observations

Time (CST) Temp. Windchill Dew Point Humidity Pressure Visibility Wind Dir Wind Speed Gust Speed Precip Events Conditions
12:15 AM 45.0 °F 42.6 °F 13.5 °F 28% 30.15 in 10.0 mi South 4.6 mph - N/A   Clear
12:35 AM 45.7 °F 42.0 °F 13.5 °F 27% 30.15 in 10.0 mi SSW 6.9 mph - N/A   Clear
12:55 AM 46.2 °F 42.2 °F 13.5 °F 27% 30.14 in 10.0 mi SSW 8.1 mph - N/A   Clear
1:15 AM 45.0 °F 41.2 °F 13.6 °F 28% 30.14 in 10.0 mi SSW 6.9 mph - N/A   Clear
1:35 AM 43.9 °F 40.5 °F 13.8 °F 30% 30.14 in 10.0 mi SSW 5.8 mph - N/A   Clear
1:55 AM 42.8 °F 39.3 °F 14.0 °F 31% 30.13 in 10.0 mi SSW 5.8 mph - N/A   Clear
2:15 AM 42.4 °F 39.6 °F 14.0 °F 32% 30.13 in 10.0 mi SW 4.6 mph - N/A   Clear
2:35 AM 41.4 °F 38.4 °F 14.0 °F 33% 30.13 in 10.0 mi SSW 4.6 mph - N/A   Clear
2:55 AM 41.2 °F 37.3 °F 14.4 °F 34% 30.12 in 10.0 mi SSW 5.8 mph - N/A   Clear
3:15 AM 41.9 °F 38.2 °F 14.4 °F 33% 30.12 in 10.0 mi SW 5.8 mph - N/A   Clear
3:35 AM 41.7 °F 38.0 °F 14.5 °F 33% 30.11 in 10.0 mi SSW 5.8 mph - N/A   Clear
3:55 AM 41.9 °F 38.2 °F 14.4 °F 33% 30.11 in 10.0 mi SSW 5.8 mph - N/A   Clear
4:15 AM 41.2 °F 38.2 °F 14.5 °F 34% 30.11 in 10.0 mi South 4.6 mph - N/A   Clear
4:35 AM 41.9 °F 40.0 °F 14.7 °F 33% 30.11 in 10.0 mi SSW 3.5 mph - N/A   Clear
4:55 AM 41.2 °F 37.3 °F 14.9 °F 34% 30.11 in 10.0 mi SSW 5.8 mph - N/A   Clear
5:15 AM 40.8 °F 36.9 °F 14.9 °F 35% 30.11 in 10.0 mi SSW 5.8 mph - N/A   Clear
5:35 AM 41.0 °F 37.1 °F 15.3 °F 35% 30.11 in 10.0 mi SSW 5.8 mph - N/A   Clear
5:55 AM 40.1 °F 36.1 °F 15.8 °F 37% 30.12 in 10.0 mi South 5.8 mph - N/A   Clear
6:15 AM 39.6 °F 35.4 °F 16.0 °F 38% 30.12 in 10.0 mi South 5.8 mph - N/A   Clear
6:35 AM 40.1 °F 35.3 °F 16.2 °F 38% 30.13 in 10.0 mi South 6.9 mph - N/A   Clear
6:55 AM 40.5 °F 35.1 °F 16.5 °F 38% 30.14 in 10.0 mi South 8.1 mph - N/A   Clear
7:15 AM 40.6 °F 35.4 °F 17.1 °F 39% 30.14 in 10.0 mi South 8.1 mph - N/A   Clear
7:35 AM 41.2 °F 36.6 °F 18.7 °F 40% 30.15 in 10.0 mi South 6.9 mph - N/A   Clear
7:55 AM 42.3 °F 38.6 °F 20.3 °F 42% 30.16 in 10.0 mi South 5.8 mph - N/A   Clear
8:15 AM 43.7 °F 39.7 °F 21.2 °F 41% 30.18 in 10.0 mi South 6.9 mph - N/A   Clear
8:35 AM 45.3 °F 42.3 °F 21.7 °F 39% 30.18 in 10.0 mi South 5.8 mph - N/A   Clear
8:55 AM 48.0 °F - 22.3 °F 36% 30.18 in 10.0 mi South 9.2 mph - N/A   Clear
9:15 AM 50.0 °F - 20.7 °F 32% 30.18 in 10.0 mi South 13.8 mph 19.6 mph N/A   Clear
9:35 AM 51.4 °F - 21.7 °F 31% 30.18 in 10.0 mi South 10.4 mph - N/A   Clear
9:55 AM 53.8 °F - 22.8 °F 30% 30.18 in 10.0 mi South 12.7 mph 19.6 mph N/A   Clear
10:15 AM 55.4 °F - 26.8 °F 33% 30.17 in 10.0 mi South 13.8 mph 20.7 mph N/A   Clear
10:35 AM 58.3 °F - 30.9 °F 35% 30.16 in 10.0 mi South 12.7 mph - N/A   Clear
10:55 AM 60.3 °F - 33.1 °F 36% 30.16 in 10.0 mi South 16.1 mph 21.9 mph N/A   Clear
11:15 AM 63.0 °F - 33.4 °F 33% 30.16 in 10.0 mi South 16.1 mph 24.2 mph N/A   Clear
11:35 AM 63.3 °F - 33.3 °F 33% 30.15 in 10.0 mi South 17.3 mph 23.0 mph N/A   Clear
11:55 AM 63.9 °F - 34.2 °F 33% 30.15 in 10.0 mi South 16.1 mph 25.3 mph N/A   Clear
12:15 PM 65.1 °F - 34.9 °F 33% 30.14 in 10.0 mi South 15.0 mph 21.9 mph N/A   Clear
12:35 PM 66.9 °F - 36.1 °F 32% 30.13 in 10.0 mi South 17.3 mph 26.5 mph N/A   Clear
12:55 PM 68.0 °F - 36.9 °F 32% 30.12 in 10.0 mi South 13.8 mph 27.6 mph N/A   Clear
1:15 PM 69.1 °F - 37.0 °F 31% 30.11 in 10.0 mi South 17.3 mph 21.9 mph N/A   Clear
1:35 PM 69.6 °F - 37.4 °F 31% 30.10 in 10.0 mi SSE 15.0 mph 21.9 mph N/A   Clear
1:55 PM 70.0 °F - 37.6 °F 31% 30.09 in 10.0 mi South 13.8 mph 25.3 mph N/A   Clear
2:15 PM 70.2 °F - 38.8 °F 32% 30.07 in 10.0 mi South 17.3 mph 23.0 mph N/A   Clear
2:35 PM 70.5 °F - 39.6 °F 32% 30.06 in 10.0 mi SSE 12.7 mph 21.9 mph N/A   Clear
2:55 PM 70.7 °F - 39.6 °F 32% 30.06 in 10.0 mi South 13.8 mph 21.9 mph N/A   Clear
3:15 PM 72.5 °F - 39.6 °F 30% 30.04 in 10.0 mi South 13.8 mph 23.0 mph N/A   Clear
3:35 PM 71.8 °F - 39.9 °F 31% 30.05 in 10.0 mi South 16.1 mph 20.7 mph N/A   Clear
3:55 PM 71.8 °F - 39.9 °F 31% 30.04 in 10.0 mi South 20.7 mph 25.3 mph N/A   Clear
4:15 PM 72.0 °F - 39.2 °F 30% 30.04 in 10.0 mi South 17.3 mph 25.3 mph 0.01 in   Clear
4:35 PM 71.8 °F - 38.7 °F 30% 30.04 in 10.0 mi SSE 17.3 mph - 0.01 in   Clear
4:55 PM 70.0 °F - 38.3 °F 31% 30.04 in 10.0 mi South 19.6 mph 24.2 mph 0.01 in   Clear
5:15 PM 70.0 °F - 39.0 °F 32% 30.04 in 10.0 mi SSE 16.1 mph 21.9 mph N/A   Clear
5:35 PM 69.8 °F - 39.2 °F 33% 30.04 in 10.0 mi South 15.0 mph 24.2 mph N/A   Clear
5:55 PM 68.9 °F - 39.4 °F 34% 30.04 in 10.0 mi South 17.3 mph 23.0 mph 0.09 in   Clear
7:35 PM 63.0 °F - 43.2 °F 48% 30.06 in 10.0 mi SSE 12.7 mph - N/A   Clear
7:55 PM 62.1 °F - 43.7 °F 51% 30.06 in 10.0 mi SSE 10.4 mph - N/A   Clear
8:15 PM 61.2 °F - 43.7 °F 53% 30.06 in 10.0 mi SSE 10.4 mph - N/A   Clear
8:35 PM 61.2 °F - 43.9 °F 53% 30.06 in 10.0 mi SSE 11.5 mph - N/A   Clear
8:55 PM 59.7 °F - 43.7 °F 55% 30.07 in 10.0 mi SSE 6.9 mph - N/A   Clear
9:15 PM 59.2 °F - 43.7 °F 57% 30.07 in 10.0 mi SSE 6.9 mph - N/A   Clear
9:35 PM 58.5 °F - 43.7 °F 58% 30.07 in 10.0 mi South 8.1 mph - N/A   Clear
9:55 PM 58.1 °F - 43.9 °F 59% 30.07 in 10.0 mi SSE 6.9 mph - N/A   Clear
10:15 PM 56.5 °F - 43.9 °F 63% 30.08 in 10.0 mi SSE 6.9 mph - N/A   Clear
10:35 PM 56.3 °F - 44.1 °F 64% 30.08 in 10.0 mi SSE 6.9 mph - N/A   Clear
10:55 PM 55.6 °F - 44.1 °F 65% 30.08 in 10.0 mi South 5.8 mph - N/A   Clear
11:15 PM 55.0 °F - 44.1 °F 67% 30.07 in 10.0 mi SSE 6.9 mph - N/A   Clear
11:35 PM 55.4 °F - 45.5 °F 69% 30.07 in 10.0 mi SSE 8.1 mph - N/A   Clear
11:55 PM 54.9 °F - 45.5 °F 71% 30.06 in 10.0 mi SSE 6.9 mph - N/A   Clear